Year,Month,Day,Hour,Minute,Value (Times are PST for temperature in C)
2009,05,15,01,13,5.30
2009,05,15,01,14,5.20
2009,05,15,01,15,5.20
2009,05,15,01,16,5.20
2009,05,15,01,17,5.20
2009,05,15,01,18,5.20
2009,05,15,01,19,5.30
2009,05,15,01,20,5.30
2009,05,15,01,21,5.30
2009,05,15,01,22,5.30
2009,05,15,01,23,5.30
2009,05,15,01,24,5.20
2009,05,15,01,25,5.20
2009,05,15,01,26,5.20
2009,05,15,01,27,5.20
2009,05,15,01,28,5.20
2009,05,15,01,29,5.20
2009,05,15,01,30,5.20
2009,05,15,01,31,5.20
2009,05,15,01,32,5.20
2009,05,15,01,33,5.20
2009,05,15,01,34,5.20
2009,05,15,01,35,5.20
2009,05,15,01,36,5.20
2009,05,15,01,37,5.20
2009,05,15,01,38,5.20
2009,05,15,01,39,5.20
2009,05,15,01,40,5.20
2009,05,15,01,41,5.30
2009,05,15,01,42,5.30
2009,05,15,01,43,5.30
2009,05,15,01,44,5.30
2009,05,15,01,45,5.30
2009,05,15,01,46,5.20
2009,05,15,01,47,5.20
2009,05,15,01,48,5.20
2009,05,15,01,49,5.20
2009,05,15,01,50,5.20
2009,05,15,01,51,5.20
2009,05,15,01,52,5.20
2009,05,15,01,53,5.20
2009,05,15,01,54,5.20
2009,05,15,01,55,5.20
2009,05,15,01,56,5.20
2009,05,15,01,57,5.10
2009,05,15,01,58,5.10
2009,05,15,01,59,5.10
2009,05,15,02,00,5.10
2009,05,15,02,01,5.10
2009,05,15,02,02,5.10
2009,05,15,02,03,5.00
2009,05,15,02,04,5.00
2009,05,15,02,05,5.00
2009,05,15,02,06,4.90
2009,05,15,02,07,4.90
2009,05,15,02,08,4.90
2009,05,15,02,09,4.90
2009,05,15,02,10,4.90
2009,05,15,02,11,4.80
2009,05,15,02,12,4.80
2009,05,15,02,13,4.80
2009,05,15,02,14,4.80
2009,05,15,02,15,4.80
2009,05,15,02,16,4.80
2009,05,15,02,17,4.80
2009,05,15,02,18,4.80
2009,05,15,02,19,4.80
2009,05,15,02,20,4.80
2009,05,15,02,21,4.80
2009,05,15,02,22,4.80
2009,05,15,02,23,4.80
2009,05,15,02,24,4.80
2009,05,15,02,25,4.80
2009,05,15,02,26,4.80
2009,05,15,02,27,4.80
2009,05,15,02,28,4.80
2009,05,15,02,29,4.80
2009,05,15,02,30,4.80
2009,05,15,02,31,4.80
2009,05,15,02,32,4.80
2009,05,15,02,33,4.80
2009,05,15,02,34,4.80
2009,05,15,02,35,4.70
2009,05,15,02,36,4.70
2009,05,15,02,37,4.70
2009,05,15,02,38,4.70
2009,05,15,02,39,4.70
2009,05,15,02,40,4.70
2009,05,15,02,41,4.70
2009,05,15,02,42,4.60
2009,05,15,02,43,4.60
2009,05,15,02,44,4.60
2009,05,15,02,45,4.60
2009,05,15,02,46,4.60
2009,05,15,02,47,4.60
2009,05,15,02,48,4.60
2009,05,15,02,49,4.60
2009,05,15,02,50,4.70
2009,05,15,02,51,4.70
2009,05,15,02,52,4.70
2009,05,15,02,53,4.70
2009,05,15,02,54,4.70
2009,05,15,02,55,4.70
2009,05,15,02,56,4.70
2009,05,15,02,57,4.70
2009,05,15,02,58,4.70
2009,05,15,02,59,4.70
2009,05,15,03,00,4.70
2009,05,15,03,01,4.70
2009,05,15,03,02,4.70
2009,05,15,03,03,4.60
2009,05,15,03,04,4.60
2009,05,15,03,05,4.60
2009,05,15,03,06,4.60
2009,05,15,03,07,4.60
2009,05,15,03,08,4.60
2009,05,15,03,09,4.60
2009,05,15,03,10,4.60
2009,05,15,03,11,4.60
2009,05,15,03,12,4.60
2009,05,15,03,13,4.60
2009,05,15,03,14,4.60
2009,05,15,03,15,4.50
2009,05,15,03,16,4.50
2009,05,15,03,17,4.50
2009,05,15,03,18,4.40
2009,05,15,03,19,4.40
2009,05,15,03,20,4.40
2009,05,15,03,21,4.50
2009,05,15,03,22,4.50
2009,05,15,03,23,4.50
2009,05,15,03,24,4.50
2009,05,15,03,25,4.50
2009,05,15,03,26,4.50
2009,05,15,03,27,4.50
2009,05,15,03,28,4.50
2009,05,15,03,29,4.50
2009,05,15,03,30,4.50
2009,05,15,03,31,4.40
2009,05,15,03,32,4.40
2009,05,15,03,33,4.40
2009,05,15,03,34,4.40
2009,05,15,03,35,4.40
2009,05,15,03,36,4.40
2009,05,15,03,37,4.40
2009,05,15,03,38,4.30
2009,05,15,03,39,4.30
2009,05,15,03,40,4.30
2009,05,15,03,41,4.30
2009,05,15,03,42,4.30
2009,05,15,03,43,4.30
2009,05,15,03,44,4.30
2009,05,15,03,45,4.30
2009,05,15,03,46,4.30
2009,05,15,03,47,4.30
2009,05,15,03,48,4.30
2009,05,15,03,49,4.30
2009,05,15,03,50,4.30
2009,05,15,03,51,4.30
2009,05,15,03,52,4.30
2009,05,15,03,53,4.30
2009,05,15,03,54,4.30
2009,05,15,03,55,4.20
2009,05,15,03,56,4.20
2009,05,15,03,57,4.20
2009,05,15,03,58,4.20
2009,05,15,03,59,4.20
2009,05,15,04,00,4.20
2009,05,15,04,01,4.30
2009,05,15,04,02,4.30
2009,05,15,04,03,4.30
2009,05,15,04,04,4.30
2009,05,15,04,05,4.30
2009,05,15,04,06,4.30
2009,05,15,04,07,4.40
2009,05,15,04,08,4.40
2009,05,15,04,09,4.40
2009,05,15,04,10,4.40
2009,05,15,04,11,4.40
2009,05,15,04,12,4.30
2009,05,15,04,13,4.30
2009,05,15,04,14,4.30
2009,05,15,04,15,4.30
2009,05,15,04,16,4.20
2009,05,15,04,17,4.20
2009,05,15,04,18,4.20
2009,05,15,04,19,4.20
2009,05,15,04,20,4.10
2009,05,15,04,21,4.10
2009,05,15,04,22,4.10
2009,05,15,04,23,4.10
2009,05,15,04,24,4.10
2009,05,15,04,25,4.10
2009,05,15,04,26,4.10
2009,05,15,04,27,4.10
2009,05,15,04,28,4.10
2009,05,15,04,29,4.10
2009,05,15,04,30,4.10
2009,05,15,04,31,4.10
2009,05,15,04,32,4.10
2009,05,15,04,33,4.10
2009,05,15,04,34,4.10
2009,05,15,04,35,4.10
2009,05,15,04,36,4.10
2009,05,15,04,37,4.10
2009,05,15,04,38,4.10
2009,05,15,04,39,4.10
2009,05,15,04,40,4.10
2009,05,15,04,41,4.10
2009,05,15,04,42,4.10
2009,05,15,04,43,4.10
2009,05,15,04,44,4.10
2009,05,15,04,45,4.10
2009,05,15,04,46,4.10
2009,05,15,04,47,4.00
2009,05,15,04,48,4.00
2009,05,15,04,49,4.00
2009,05,15,04,50,4.00
2009,05,15,04,51,4.00
2009,05,15,04,52,4.00
2009,05,15,04,53,4.00
2009,05,15,04,54,4.00
2009,05,15,04,55,4.00
2009,05,15,04,56,3.90
2009,05,15,04,57,3.90
2009,05,15,04,58,3.90
2009,05,15,04,59,3.90
2009,05,15,05,00,3.90
2009,05,15,05,01,3.80
2009,05,15,05,02,3.80
2009,05,15,05,03,3.80
2009,05,15,05,04,3.80
2009,05,15,05,05,3.80
2009,05,15,05,06,3.80
2009,05,15,05,07,3.80
2009,05,15,05,08,3.80
2009,05,15,05,09,3.80
2009,05,15,05,10,3.80
2009,05,15,05,11,3.80
2009,05,15,05,12,3.80
2009,05,15,05,13,3.80
2009,05,15,05,14,3.80
2009,05,15,05,15,3.80
2009,05,15,05,16,3.80
2009,05,15,05,17,3.80
2009,05,15,05,18,3.80
2009,05,15,05,19,3.90
2009,05,15,05,20,3.90
2009,05,15,05,21,3.90
2009,05,15,05,22,3.90
2009,05,15,05,23,3.80
2009,05,15,05,24,3.80
2009,05,15,05,25,3.80
2009,05,15,05,26,3.80
2009,05,15,05,27,3.80
2009,05,15,05,28,3.70
2009,05,15,05,29,3.70
2009,05,15,05,30,3.70
2009,05,15,05,31,3.70
2009,05,15,05,32,3.70
2009,05,15,05,33,3.70
2009,05,15,05,34,3.70
2009,05,15,05,35,3.60
2009,05,15,05,36,3.60
2009,05,15,05,37,3.60
2009,05,15,05,38,3.60
2009,05,15,05,39,3.60
2009,05,15,05,40,3.60
2009,05,15,05,41,3.60
2009,05,15,05,42,3.60
2009,05,15,05,43,3.70
2009,05,15,05,44,3.80
2009,05,15,05,45,3.80
2009,05,15,05,46,3.80
2009,05,15,05,47,3.80
2009,05,15,05,48,3.80
2009,05,15,05,49,3.80
2009,05,15,05,50,3.80
2009,05,15,05,51,3.80
2009,05,15,05,52,3.80
2009,05,15,05,53,3.80
2009,05,15,05,54,3.70
2009,05,15,05,55,3.70
2009,05,15,05,56,3.70
2009,05,15,05,57,3.70
2009,05,15,05,58,3.70
2009,05,15,05,59,3.60
2009,05,15,06,00,3.60
2009,05,15,06,01,3.60
2009,05,15,06,02,3.60
2009,05,15,06,03,3.60
2009,05,15,06,04,3.60
2009,05,15,06,05,3.60
2009,05,15,06,06,3.60
2009,05,15,06,07,3.60
2009,05,15,06,08,3.60
2009,05,15,06,09,3.60
2009,05,15,06,10,3.60
2009,05,15,06,11,3.60
2009,05,15,06,12,3.60
2009,05,15,06,13,3.60
2009,05,15,06,14,3.60
2009,05,15,06,15,3.60
2009,05,15,06,16,3.60
2009,05,15,06,17,3.60
2009,05,15,06,18,3.70
2009,05,15,06,19,3.70
2009,05,15,06,20,3.70
2009,05,15,06,21,3.70
2009,05,15,06,22,3.70
2009,05,15,06,23,3.70
2009,05,15,06,24,3.70
2009,05,15,06,25,3.70
2009,05,15,06,26,3.70
2009,05,15,06,27,3.80
2009,05,15,06,28,3.80
2009,05,15,06,29,3.80
2009,05,15,06,30,3.80
2009,05,15,06,31,3.80
2009,05,15,06,32,3.80
2009,05,15,06,33,3.80
2009,05,15,06,34,3.90
2009,05,15,06,35,3.90
2009,05,15,06,36,3.90
2009,05,15,06,37,4.00
2009,05,15,06,38,4.00
2009,05,15,06,39,4.10
2009,05,15,06,40,4.10
2009,05,15,06,41,4.10
2009,05,15,06,42,4.10
2009,05,15,06,43,4.20
2009,05,15,06,44,4.20
2009,05,15,06,45,4.20
2009,05,15,06,46,4.20
2009,05,15,06,47,4.20
2009,05,15,06,48,4.30
2009,05,15,06,49,4.30
2009,05,15,06,50,4.30
2009,05,15,06,51,4.30
2009,05,15,06,52,4.40
2009,05,15,06,53,4.40
2009,05,15,06,54,4.50
2009,05,15,06,55,4.60
2009,05,15,06,56,4.60
2009,05,15,06,57,4.70
2009,05,15,06,58,4.70
2009,05,15,06,59,4.70
2009,05,15,07,00,4.70
2009,05,15,07,01,4.70
2009,05,15,07,02,4.70
2009,05,15,07,03,4.70
2009,05,15,07,04,4.70
2009,05,15,07,05,4.70
2009,05,15,07,06,4.70
2009,05,15,07,07,4.70
2009,05,15,07,08,4.70
2009,05,15,07,09,4.70
2009,05,15,07,10,4.70
2009,05,15,07,11,4.70
2009,05,15,07,12,4.70
2009,05,15,07,13,4.80
2009,05,15,07,14,4.90
2009,05,15,07,15,5.00
2009,05,15,07,16,5.10
2009,05,15,07,17,5.20
2009,05,15,07,18,5.20
2009,05,15,07,19,5.30
2009,05,15,07,20,5.30
2009,05,15,07,21,5.40
2009,05,15,07,22,5.50
2009,05,15,07,23,5.50
2009,05,15,07,24,5.60
2009,05,15,07,25,5.70
2009,05,15,07,26,5.80
2009,05,15,07,27,5.90
2009,05,15,07,28,6.00
2009,05,15,07,29,6.10
2009,05,15,07,30,6.20
2009,05,15,07,31,6.30
2009,05,15,07,32,6.40
2009,05,15,07,33,6.50
2009,05,15,07,34,6.70
2009,05,15,07,35,6.70
2009,05,15,07,36,6.90
2009,05,15,07,37,7.00
2009,05,15,07,38,7.10
2009,05,15,07,39,7.20
2009,05,15,07,40,7.30
2009,05,15,07,41,7.40
2009,05,15,07,42,7.40
2009,05,15,07,43,7.50
2009,05,15,07,44,7.60
2009,05,15,07,45,7.70
2009,05,15,07,46,7.80
2009,05,15,07,47,7.80
2009,05,15,07,48,7.90
2009,05,15,07,49,7.90
2009,05,15,07,50,8.00
2009,05,15,07,51,8.10
2009,05,15,07,52,8.20
2009,05,15,07,53,8.20
2009,05,15,07,54,8.30
2009,05,15,07,55,8.40
2009,05,15,07,56,8.50
2009,05,15,07,57,8.70
2009,05,15,07,58,8.70
2009,05,15,07,59,8.80
2009,05,15,08,00,8.80
2009,05,15,08,01,8.90
2009,05,15,08,02,8.90
2009,05,15,08,03,9.00
2009,05,15,08,04,9.10
2009,05,15,08,05,9.20
2009,05,15,08,06,9.30
2009,05,15,08,07,9.50
2009,05,15,08,08,9.70
2009,05,15,08,09,9.80
2009,05,15,08,10,10.00
2009,05,15,08,11,10.00
2009,05,15,08,12,10.10
2009,05,15,08,13,10.20
2009,05,15,08,14,10.20
2009,05,15,08,15,10.30
2009,05,15,08,16,10.30
2009,05,15,08,17,10.30
2009,05,15,08,18,10.30
2009,05,15,08,19,10.30
2009,05,15,08,20,10.30
2009,05,15,08,21,10.20
2009,05,15,08,22,10.20
2009,05,15,08,23,10.20
2009,05,15,08,24,10.20
2009,05,15,08,25,10.30
2009,05,15,08,26,10.20
2009,05,15,08,27,10.20
2009,05,15,08,28,10.20
2009,05,15,08,29,10.30
2009,05,15,08,30,10.30
2009,05,15,08,31,10.30
2009,05,15,08,32,10.30
2009,05,15,08,33,10.30
2009,05,15,08,34,10.30
2009,05,15,08,35,10.30
2009,05,15,08,36,10.30
2009,05,15,08,37,10.40
2009,05,15,08,38,10.50
2009,05,15,08,39,10.60
2009,05,15,08,40,10.60
2009,05,15,08,41,10.70
2009,05,15,08,42,10.80
2009,05,15,08,43,10.80
2009,05,15,08,44,10.80
2009,05,15,08,45,10.80
2009,05,15,08,46,10.90
2009,05,15,08,47,10.90
2009,05,15,08,48,11.00
2009,05,15,08,49,11.00
2009,05,15,08,50,11.00
2009,05,15,08,51,11.00
2009,05,15,08,52,11.00
2009,05,15,08,53,11.10
2009,05,15,08,54,11.10
2009,05,15,08,55,11.20
2009,05,15,08,56,11.30
2009,05,15,08,57,11.40
2009,05,15,08,58,11.50
2009,05,15,08,59,11.50
2009,05,15,09,00,11.40
2009,05,15,09,01,11.60
2009,05,15,09,02,11.70
2009,05,15,09,03,11.70
2009,05,15,09,04,11.70
2009,05,15,09,05,11.70
2009,05,15,09,06,11.60
2009,05,15,09,07,11.50
2009,05,15,09,08,11.40
2009,05,15,09,09,11.30
2009,05,15,09,10,11.20
2009,05,15,09,11,11.10
2009,05,15,09,12,11.10
2009,05,15,09,13,11.10
2009,05,15,09,14,11.10
2009,05,15,09,15,11.10
2009,05,15,09,16,11.10
2009,05,15,09,17,11.10
2009,05,15,09,18,11.10
2009,05,15,09,19,11.10
2009,05,15,09,20,11.10
2009,05,15,09,21,11.20
2009,05,15,09,22,11.30
2009,05,15,09,23,11.40
2009,05,15,09,24,11.40
2009,05,15,09,25,11.40
2009,05,15,09,26,11.50
2009,05,15,09,27,11.60
2009,05,15,09,28,11.50
2009,05,15,09,29,11.50
2009,05,15,09,30,11.50
2009,05,15,09,31,11.60
2009,05,15,09,32,11.60
2009,05,15,09,33,11.60
2009,05,15,09,34,11.70
2009,05,15,09,35,11.60
2009,05,15,09,36,11.60
2009,05,15,09,37,11.60
2009,05,15,09,38,11.70
2009,05,15,09,39,11.70
2009,05,15,09,40,11.50
2009,05,15,09,41,11.40
2009,05,15,09,42,11.30
2009,05,15,09,43,11.20
2009,05,15,09,44,11.20
2009,05,15,09,45,11.20
2009,05,15,09,46,11.20
2009,05,15,09,47,11.20
2009,05,15,09,48,11.20
2009,05,15,09,49,11.20
2009,05,15,09,50,11.20
2009,05,15,09,51,11.30
2009,05,15,09,52,11.40
2009,05,15,09,53,11.50
2009,05,15,09,54,11.50
2009,05,15,09,55,11.60
2009,05,15,09,56,11.60
2009,05,15,09,57,11.60
2009,05,15,09,58,11.60
2009,05,15,09,59,11.70
2009,05,15,10,00,11.80
2009,05,15,10,01,11.80
2009,05,15,10,02,11.80
2009,05,15,10,03,11.80
2009,05,15,10,04,11.80
2009,05,15,10,05,11.90
2009,05,15,10,06,11.90
2009,05,15,10,07,11.90
2009,05,15,10,08,12.00
2009,05,15,10,09,12.00
2009,05,15,10,10,11.90
2009,05,15,10,11,11.90
2009,05,15,10,12,11.80
2009,05,15,10,13,11.80
2009,05,15,10,14,11.80
2009,05,15,10,15,11.80
2009,05,15,10,16,11.80
2009,05,15,10,17,11.70
2009,05,15,10,18,11.70
2009,05,15,10,19,11.60
2009,05,15,10,20,11.60
2009,05,15,10,21,11.60
2009,05,15,10,22,11.60
2009,05,15,10,23,11.50
2009,05,15,10,24,11.40
2009,05,15,10,25,11.40
2009,05,15,10,26,11.30
2009,05,15,10,27,11.20
2009,05,15,10,28,11.30
2009,05,15,10,29,11.40
2009,05,15,10,30,11.50
2009,05,15,10,31,11.50
2009,05,15,10,32,11.40
2009,05,15,10,33,11.40
2009,05,15,10,34,11.30
2009,05,15,10,35,11.30
2009,05,15,10,36,11.40
2009,05,15,10,37,11.60
2009,05,15,10,38,11.70
2009,05,15,10,39,11.80
2009,05,15,10,40,11.80
2009,05,15,10,41,11.70
2009,05,15,10,42,11.70
2009,05,15,10,43,11.80
2009,05,15,10,44,11.90
2009,05,15,10,45,11.90
2009,05,15,10,46,11.80
2009,05,15,10,47,11.80
2009,05,15,10,48,11.80
2009,05,15,10,49,11.80
2009,05,15,10,50,11.70
2009,05,15,10,51,11.50
2009,05,15,10,52,11.50
2009,05,15,10,53,11.70
2009,05,15,10,54,11.80
2009,05,15,10,55,11.90
2009,05,15,10,56,12.00
2009,05,15,10,57,12.10
2009,05,15,10,58,12.20
2009,05,15,10,59,12.30
2009,05,15,11,00,12.30
2009,05,15,11,01,12.30
2009,05,15,11,02,12.30
2009,05,15,11,03,12.10
2009,05,15,11,04,12.10
2009,05,15,11,05,12.00
2009,05,15,11,06,11.90
2009,05,15,11,07,11.80
2009,05,15,11,08,11.80
2009,05,15,11,09,11.70
2009,05,15,11,10,11.60
2009,05,15,11,11,11.60
2009,05,15,11,12,11.70
2009,05,15,11,13,11.70
2009,05,15,11,14,11.70
2009,05,15,11,15,11.60
2009,05,15,11,16,11.60
2009,05,15,11,17,11.60
2009,05,15,11,18,11.60
2009,05,15,11,19,11.60
2009,05,15,11,20,11.60
2009,05,15,11,21,11.60
2009,05,15,11,22,11.70
2009,05,15,11,23,11.70
2009,05,15,11,24,11.70
2009,05,15,11,25,11.80
2009,05,15,11,26,12.00
2009,05,15,11,27,12.10
2009,05,15,11,28,12.00
2009,05,15,11,29,11.90
2009,05,15,11,30,11.90
2009,05,15,11,31,11.90
2009,05,15,11,32,12.00
2009,05,15,11,33,12.10
2009,05,15,11,34,12.00
2009,05,15,11,35,11.80
2009,05,15,11,36,11.70
2009,05,15,11,37,11.70
2009,05,15,11,38,11.60
2009,05,15,11,39,11.60
2009,05,15,11,40,11.70
2009,05,15,11,41,11.60
2009,05,15,11,42,11.50
2009,05,15,11,43,11.50
2009,05,15,11,44,11.50
2009,05,15,11,45,11.60
2009,05,15,11,46,11.80
2009,05,15,11,47,11.80
2009,05,15,11,48,11.70
2009,05,15,11,49,11.70
2009,05,15,11,50,11.70
2009,05,15,11,51,11.70
2009,05,15,11,52,11.70
2009,05,15,11,53,11.70
2009,05,15,11,54,11.90
2009,05,15,11,55,12.00
2009,05,15,11,56,12.10
2009,05,15,11,57,12.10
2009,05,15,11,58,12.20
2009,05,15,11,59,12.20
2009,05,15,12,00,12.10
2009,05,15,12,01,12.20
2009,05,15,12,02,12.30
2009,05,15,12,03,12.30
2009,05,15,12,04,12.30
2009,05,15,12,05,12.40
2009,05,15,12,06,12.50
2009,05,15,12,07,12.50
2009,05,15,12,08,12.40
2009,05,15,12,09,12.40
2009,05,15,12,10,12.40
2009,05,15,12,11,12.40
2009,05,15,12,12,12.30
2009,05,15,12,13,12.30
2009,05,15,12,14,12.30
2009,05,15,12,15,12.40
2009,05,15,12,16,12.40
2009,05,15,12,17,12.40
2009,05,15,12,18,12.40
2009,05,15,12,19,12.50
2009,05,15,12,20,12.60
2009,05,15,12,21,12.80
2009,05,15,12,22,12.90
2009,05,15,12,23,12.90
2009,05,15,12,24,12.90
2009,05,15,12,25,12.90
2009,05,15,12,26,12.80
2009,05,15,12,27,12.80
2009,05,15,12,28,12.90
2009,05,15,12,29,13.00
2009,05,15,12,30,13.10
2009,05,15,12,31,13.10
2009,05,15,12,32,13.20
2009,05,15,12,33,13.30
2009,05,15,12,34,13.30
2009,05,15,12,35,13.40
2009,05,15,12,36,13.40
2009,05,15,12,37,13.30
2009,05,15,12,38,13.20
2009,05,15,12,39,13.20
2009,05,15,12,40,13.20
2009,05,15,12,41,13.20
2009,05,15,12,42,13.30
2009,05,15,12,43,13.30
2009,05,15,12,44,13.30
2009,05,15,12,45,13.40
2009,05,15,12,46,13.40
2009,05,15,12,47,13.40
2009,05,15,12,48,13.40
2009,05,15,12,49,13.30
2009,05,15,12,50,13.20
2009,05,15,12,51,13.20
2009,05,15,12,52,13.00
2009,05,15,12,53,12.90
2009,05,15,12,54,13.00
2009,05,15,12,55,13.10
2009,05,15,12,56,13.00
2009,05,15,12,57,13.00
2009,05,15,12,58,13.10
2009,05,15,12,59,13.00
2009,05,15,13,00,13.00
2009,05,15,13,01,13.10
2009,05,15,13,02,12.90
2009,05,15,13,03,12.80
2009,05,15,13,04,12.70
2009,05,15,13,05,12.70
2009,05,15,13,06,12.60
2009,05,15,13,07,12.60
2009,05,15,13,08,12.70
2009,05,15,13,09,12.70
2009,05,15,13,10,12.80
2009,05,15,13,11,13.00
2009,05,15,13,12,13.10
2009,05,15,13,13,13.20
2009,05,15,13,14,13.40
2009,05,15,13,15,13.60
2009,05,15,13,16,13.80
2009,05,15,13,17,13.80
2009,05,15,13,18,13.70
2009,05,15,13,19,13.70
2009,05,15,13,20,13.60
2009,05,15,13,21,13.60
2009,05,15,13,22,13.70
2009,05,15,13,23,13.70
2009,05,15,13,24,13.70
2009,05,15,13,25,13.60
2009,05,15,13,26,13.50
2009,05,15,13,27,13.50
2009,05,15,13,28,13.40
2009,05,15,13,29,13.40
2009,05,15,13,30,13.50
2009,05,15,13,31,13.50
2009,05,15,13,32,13.60
2009,05,15,13,33,13.60
2009,05,15,13,34,13.60
2009,05,15,13,35,13.70
2009,05,15,13,36,13.80
2009,05,15,13,37,13.80
2009,05,15,13,38,13.70
2009,05,15,13,39,13.60
2009,05,15,13,40,13.60
2009,05,15,13,41,13.70
2009,05,15,13,42,13.80
2009,05,15,13,43,13.90
2009,05,15,13,44,14.10
2009,05,15,13,45,14.20
2009,05,15,13,46,14.10
2009,05,15,13,47,13.90
2009,05,15,13,48,13.80
2009,05,15,13,49,13.70
2009,05,15,13,50,13.80
2009,05,15,13,51,13.80
2009,05,15,13,52,13.80
2009,05,15,13,53,13.90
2009,05,15,13,54,13.90
2009,05,15,13,55,13.90
2009,05,15,13,56,14.00
2009,05,15,13,57,14.10
2009,05,15,13,58,14.10
2009,05,15,13,59,14.20
2009,05,15,14,00,14.20
2009,05,15,14,01,14.30
2009,05,15,14,02,14.30
2009,05,15,14,03,14.30
2009,05,15,14,04,14.30
2009,05,15,14,05,14.30
2009,05,15,14,06,14.20
2009,05,15,14,07,14.20
2009,05,15,14,08,14.10
2009,05,15,14,09,14.10
2009,05,15,14,10,14.10
2009,05,15,14,11,14.10
2009,05,15,14,12,14.10
2009,05,15,14,13,14.10
2009,05,15,14,14,14.20
2009,05,15,14,15,14.20
2009,05,15,14,16,14.30
2009,05,15,14,17,14.30
2009,05,15,14,18,14.40
2009,05,15,14,19,14.50
2009,05,15,14,20,14.50
2009,05,15,14,21,14.60
2009,05,15,14,22,14.60
2009,05,15,14,23,14.70
2009,05,15,14,24,14.80
2009,05,15,14,25,14.80
2009,05,15,14,26,14.80
2009,05,15,14,27,14.90
2009,05,15,14,28,15.00
2009,05,15,14,29,15.00
2009,05,15,14,30,15.00
2009,05,15,14,31,15.00
2009,05,15,14,32,15.00
2009,05,15,14,33,15.00
2009,05,15,14,34,15.00
2009,05,15,14,35,15.00
2009,05,15,14,36,15.10
2009,05,15,14,37,15.10
2009,05,15,14,38,15.20
2009,05,15,14,39,15.20
2009,05,15,14,40,15.20
2009,05,15,14,41,15.30
2009,05,15,14,42,15.30
2009,05,15,14,43,15.30
2009,05,15,14,44,15.40
2009,05,15,14,45,15.30
2009,05,15,14,46,15.30
2009,05,15,14,47,15.20
2009,05,15,14,48,15.10
2009,05,15,14,49,15.00
2009,05,15,14,50,15.00
2009,05,15,14,51,15.10
2009,05,15,14,52,15.20
2009,05,15,14,53,15.00
2009,05,15,14,54,15.00
2009,05,15,14,55,15.00
2009,05,15,14,56,15.10
2009,05,15,14,57,15.10
2009,05,15,14,58,15.10
2009,05,15,14,59,15.20
2009,05,15,15,00,15.10
2009,05,15,15,01,15.00
2009,05,15,15,02,14.90
2009,05,15,15,03,14.70
2009,05,15,15,04,14.60
2009,05,15,15,05,14.60
2009,05,15,15,06,14.50
2009,05,15,15,07,14.60
2009,05,15,15,08,14.60
2009,05,15,15,09,14.60
2009,05,15,15,10,14.60
2009,05,15,15,11,14.70
2009,05,15,15,12,14.70
2009,05,15,15,13,14.80
2009,05,15,15,14,14.80
2009,05,15,15,15,14.80
2009,05,15,15,16,14.80
2009,05,15,15,17,14.80
2009,05,15,15,18,14.80
2009,05,15,15,19,14.90
2009,05,15,15,20,15.00
2009,05,15,15,21,14.90
2009,05,15,15,22,15.00
2009,05,15,15,23,14.90
2009,05,15,15,24,14.90
2009,05,15,15,25,15.00
2009,05,15,15,26,15.00
2009,05,15,15,27,15.00
2009,05,15,15,28,15.00
2009,05,15,15,29,15.10
2009,05,15,15,30,15.20
2009,05,15,15,31,15.40
2009,05,15,15,32,15.50
2009,05,15,15,33,15.60
2009,05,15,15,34,15.70
2009,05,15,15,35,15.60
2009,05,15,15,36,15.50
2009,05,15,15,37,15.40
2009,05,15,15,38,15.30
2009,05,15,15,39,15.30
2009,05,15,15,40,15.30
2009,05,15,15,41,15.30
2009,05,15,15,42,15.30
2009,05,15,15,43,15.30
2009,05,15,15,44,15.30
2009,05,15,15,45,15.40
2009,05,15,15,46,15.50
2009,05,15,15,47,15.60
2009,05,15,15,48,15.70
2009,05,15,15,49,15.50
2009,05,15,15,50,15.50
2009,05,15,15,51,15.40
2009,05,15,15,52,15.30
2009,05,15,15,53,15.40
2009,05,15,15,54,15.50
2009,05,15,15,55,15.60
2009,05,15,15,56,15.60
2009,05,15,15,57,15.70
2009,05,15,15,58,15.80
2009,05,15,15,59,15.70
2009,05,15,16,00,15.80
2009,05,15,16,01,15.80
2009,05,15,16,02,15.80
2009,05,15,16,03,15.90
2009,05,15,16,04,15.90
2009,05,15,16,05,15.90
2009,05,15,16,06,15.90
2009,05,15,16,07,15.90
2009,05,15,16,08,16.00
2009,05,15,16,09,16.00
2009,05,15,16,10,15.90
2009,05,15,16,11,15.90
2009,05,15,16,12,15.80
2009,05,15,16,13,15.70
2009,05,15,16,14,15.70
2009,05,15,16,15,15.60
2009,05,15,16,16,15.60
2009,05,15,16,17,15.60
2009,05,15,16,18,15.50
2009,05,15,16,19,15.50
2009,05,15,16,20,15.50
2009,05,15,16,21,15.50
2009,05,15,16,22,15.40
2009,05,15,16,23,15.40
2009,05,15,16,24,15.40
2009,05,15,16,25,15.30
2009,05,15,16,26,15.30
2009,05,15,16,27,15.30
2009,05,15,16,28,15.30
2009,05,15,16,29,15.30
2009,05,15,16,30,15.40
2009,05,15,16,31,15.50
2009,05,15,16,32,15.60
2009,05,15,16,33,15.60
2009,05,15,16,34,15.50
2009,05,15,16,35,15.40
2009,05,15,16,36,15.30
2009,05,15,16,37,15.30
2009,05,15,16,38,15.20
2009,05,15,16,39,15.30
2009,05,15,16,40,15.30
2009,05,15,16,41,15.30
2009,05,15,16,42,15.30
2009,05,15,16,43,15.30
2009,05,15,16,44,15.30
2009,05,15,16,45,15.40
2009,05,15,16,46,15.40
2009,05,15,16,47,15.40
2009,05,15,16,48,15.40
2009,05,15,16,49,15.40
2009,05,15,16,50,15.40
2009,05,15,16,51,15.40
2009,05,15,16,52,15.40
2009,05,15,16,53,15.40
2009,05,15,16,54,15.40
2009,05,15,16,55,15.40
2009,05,15,16,56,15.40
2009,05,15,16,57,15.40
2009,05,15,16,58,15.50
2009,05,15,16,59,15.50
2009,05,15,17,00,15.60
2009,05,15,17,01,15.60
2009,05,15,17,02,15.60
2009,05,15,17,03,15.60
2009,05,15,17,04,15.70
2009,05,15,17,05,15.70
2009,05,15,17,06,15.70
2009,05,15,17,07,15.70
2009,05,15,17,08,15.80
2009,05,15,17,09,15.80
2009,05,15,17,10,15.80
2009,05,15,17,11,15.80
2009,05,15,17,12,15.80
2009,05,15,17,13,15.90
2009,05,15,17,14,15.90
2009,05,15,17,15,15.90
2009,05,15,17,16,15.90
2009,05,15,17,17,15.80
2009,05,15,17,18,15.80
2009,05,15,17,19,15.70
2009,05,15,17,20,15.70
2009,05,15,17,21,15.70
2009,05,15,17,22,15.80
2009,05,15,17,23,15.90
2009,05,15,17,24,15.90
2009,05,15,17,25,16.00
2009,05,15,17,26,16.10
2009,05,15,17,27,16.20
2009,05,15,17,28,16.20
2009,05,15,17,29,16.30
2009,05,15,17,30,16.20
2009,05,15,17,31,16.10
2009,05,15,17,32,16.00
2009,05,15,17,33,16.00
2009,05,15,17,34,15.90
2009,05,15,17,35,16.00
2009,05,15,17,36,16.00
2009,05,15,17,37,16.00
2009,05,15,17,38,16.00
2009,05,15,17,39,16.00
2009,05,15,17,40,16.00
2009,05,15,17,41,16.00
2009,05,15,17,42,16.00
2009,05,15,17,43,16.00
2009,05,15,17,44,16.00
2009,05,15,17,45,16.00
2009,05,15,17,46,16.00
2009,05,15,17,47,16.00
2009,05,15,17,48,15.90
2009,05,15,17,49,15.90
2009,05,15,17,50,15.90
2009,05,15,17,51,15.90
2009,05,15,17,52,15.90
2009,05,15,17,53,15.80
2009,05,15,17,54,15.80
2009,05,15,17,55,15.70
2009,05,15,17,56,15.70
2009,05,15,17,57,15.80
2009,05,15,17,58,15.80
2009,05,15,17,59,15.80
2009,05,15,18,00,15.80
2009,05,15,18,01,15.80
2009,05,15,18,02,15.80
2009,05,15,18,03,15.80
2009,05,15,18,04,15.80
2009,05,15,18,05,15.80
2009,05,15,18,06,15.80
2009,05,15,18,07,15.80
2009,05,15,18,08,15.80
2009,05,15,18,09,15.70
2009,05,15,18,10,15.70
2009,05,15,18,11,15.70
2009,05,15,18,12,15.70
2009,05,15,18,13,15.70
2009,05,15,18,14,15.70
2009,05,15,18,15,15.70
2009,05,15,18,16,15.70
2009,05,15,18,17,15.70
2009,05,15,18,18,15.70
2009,05,15,18,19,15.70
2009,05,15,18,20,15.70
2009,05,15,18,21,15.70
2009,05,15,18,22,15.70
2009,05,15,18,23,15.70
2009,05,15,18,24,15.60
2009,05,15,18,25,15.60
2009,05,15,18,26,15.60
2009,05,15,18,27,15.60
2009,05,15,18,28,15.60
2009,05,15,18,29,15.50
2009,05,15,18,30,15.50
2009,05,15,18,31,15.50
2009,05,15,18,32,15.50
2009,05,15,18,33,15.50
2009,05,15,18,34,15.50
2009,05,15,18,35,15.50
2009,05,15,18,36,15.50
2009,05,15,18,37,15.50
2009,05,15,18,38,15.50
2009,05,15,18,39,15.50
2009,05,15,18,40,15.50
2009,05,15,18,41,15.50
2009,05,15,18,42,15.50
2009,05,15,18,43,15.60
2009,05,15,18,44,15.60
2009,05,15,18,45,15.60
2009,05,15,18,46,15.60
2009,05,15,18,47,15.60
2009,05,15,18,48,15.60
2009,05,15,18,49,15.60
2009,05,15,18,50,15.60